Weather History for KANW - December, 2013

Change the Weather History Date:

Saturday, December 7, 2013

  Actual Average Record
Temperature  
Mean Temperature -7 °F -  
Max Temperature 7 °F 39 °F 62 °F (2003)
Min Temperature -21 °F 20 °F -21 °F (2013)
Degree Days  
Heating Degree Days 72    
Moisture  
Dew Point -11 °F    
Average Humidity 75    
Maximum Humidity 84    
Minimum Humidity 63    
Precipitation  
Precipitation 0.00 in - - ()
Sea Level Pressure  
Sea Level Pressure 30.39 in    
Wind  
Wind Speed 5 mph (SE)    
Max Wind Speed 16 mph    
Max Gust Speed 21 mph    
Visibility 8 miles    
Events Snow    
Averages and records for this station are not official NWS values.
T = Trace of Precipitation, MM = Missing Value Source: NWS Daily Summary

Daily Weather History Graph

Daily Weather History Graph

Search for Another Location

Airport or City:

Trip Planner

Search our weather history database for the weather conditions in past years. The results will help you decide how hot, cold, wet, or windy it might be!

Date:

Astronomy

Dec. 07, 2013 Rise Set
Actual Time 7:56 AM CST 5:06 PM CST
Civil Twilight 7:24 AM CST 5:38 PM CST
Nautical Twilight 6:49 AM CST 6:13 PM CST
Astronomical Twilight 6:15 AM CST 6:47 PM CST
Moon 11:38 AM CST (12/7) 10:55 PM CST (12/7)
Length of Visible Light 10h 13m
Length of Day
9h 10m
Waxing Crescent, 29% of the Moon is Illuminated
Dec 7
Waxing Crescent
Dec 9
First Quarter
Dec 17
Full
Dec 25
Last Quarter
Jan 1
New

Hourly Weather History & Observations

Time (CST) Temp. Windchill Dew Point Humidity Pressure Visibility Wind Dir Wind Speed Gust Speed Precip Events Conditions
12:15 AM -18.4 °F -28.9 °F -24.9 °F 72% 30.55 in 10.0 mi SSW 3.5 mph - N/A   Overcast
12:35 AM -16.6 °F - -22.2 °F 76% 30.53 in 10.0 mi Calm Calm - N/A   Scattered Clouds
12:55 AM -15.7 °F -30.2 °F -21.6 °F 75% 30.54 in 10.0 mi SW 5.8 mph - N/A   Mostly Cloudy
1:15 AM -15.2 °F - -20.4 °F 77% 30.52 in 10.0 mi Calm Calm - N/A   Scattered Clouds
1:35 AM -16.4 °F - -22.0 °F 76% 30.53 in 10.0 mi Calm Calm - N/A   Clear
1:55 AM -13.9 °F -23.7 °F -18.9 °F 78% 30.52 in 10.0 mi WNW 3.5 mph - N/A   Clear
2:15 AM -14.4 °F -26.7 °F -19.7 °F 77% 30.52 in 10.0 mi West 4.6 mph - N/A   Clear
2:35 AM -15.3 °F - -20.6 °F 77% 30.52 in 10.0 mi Calm Calm - N/A   Clear
2:55 AM -17.9 °F - -23.4 °F 76% 30.52 in 10.0 mi Calm Calm - N/A   Clear
3:15 AM -17.5 °F - -23.1 °F 76% 30.52 in 10.0 mi Calm Calm - N/A   Clear
3:35 AM -21.1 °F - -27.4 °F 73% 30.52 in 10.0 mi Calm Calm - N/A   Scattered Clouds
3:55 AM -19.3 °F - -25.2 °F 74% 30.52 in 10.0 mi Calm Calm - N/A   Scattered Clouds
4:15 AM -16.6 °F - -22.0 °F 76% 30.51 in 10.0 mi Calm Calm - N/A   Clear
4:35 AM -17.9 °F - -24.0 °F 74% 30.51 in 10.0 mi Calm Calm - N/A   Scattered Clouds
4:55 AM -18.0 °F - -23.8 °F 75% 30.52 in 10.0 mi Calm Calm - N/A   Overcast
5:15 AM -16.4 °F - -21.6 °F 77% 30.51 in 10.0 mi Calm Calm - N/A   Overcast
5:35 AM -16.4 °F - -21.6 °F 77% 30.51 in 10.0 mi Calm Calm - N/A   Overcast
5:55 AM -14.1 °F - -19.3 °F 77% 30.50 in 10.0 mi Calm Calm - N/A   Overcast
6:15 AM -15.0 °F - -20.6 °F 76% 30.49 in 10.0 mi Calm Calm - N/A   Mostly Cloudy
6:35 AM -15.9 °F - -21.5 °F 76% 30.49 in 10.0 mi Calm Calm - N/A   Scattered Clouds
6:55 AM -16.8 °F - -22.7 °F 74% 30.49 in 10.0 mi Calm Calm - N/A   Clear
7:15 AM -17.7 °F - -23.8 °F 74% 30.50 in 10.0 mi Calm Calm - N/A   Clear
7:35 AM -18.0 °F - -24.0 °F 74% 30.50 in 10.0 mi Calm Calm - N/A   Clear
7:55 AM -16.1 °F - -21.5 °F 77% 30.50 in 10.0 mi Calm Calm - N/A   Clear
8:15 AM -17.7 °F - -23.6 °F 74% 30.50 in 10.0 mi Calm Calm - N/A   Clear
8:35 AM -17.9 °F -28.2 °F -23.6 °F 75% 30.50 in 10.0 mi South 3.5 mph - N/A   Clear
8:55 AM -18.4 °F -31.4 °F -23.8 °F 76% 30.51 in 10.0 mi South 4.6 mph - N/A   Clear
9:15 AM -16.4 °F -29.1 °F -21.6 °F 77% 30.50 in 10.0 mi SSE 4.6 mph - N/A   Clear
9:35 AM -16.6 °F -26.8 °F -22.0 °F 76% 30.50 in 10.0 mi SSE 3.5 mph - N/A   Clear
9:55 AM -13.7 °F -23.5 °F -18.9 °F 77% 30.49 in 10.0 mi SSE 3.5 mph - N/A   Clear
10:15 AM -11.6 °F - -17.0 °F 77% 30.48 in 10.0 mi Calm Calm - N/A   Clear
10:35 AM -8.9 °F -20.2 °F -14.4 °F 77% 30.48 in 10.0 mi SSE 4.6 mph - N/A   Clear
10:55 AM -5.8 °F -16.7 °F -11.2 °F 77% 30.47 in 10.0 mi SSE 4.6 mph - N/A   Scattered Clouds
11:15 AM -4.0 °F -19.0 °F -9.4 °F 78% 30.45 in 10.0 mi SSE 8.1 mph - N/A   Scattered Clouds
11:35 AM -2.4 °F -14.4 °F -7.6 °F 78% 30.45 in 10.0 mi SSE 5.8 mph - N/A   Clear
11:55 AM -0.9 °F -19.1 °F -7.8 °F 73% 30.44 in 10.0 mi SSE 12.7 mph - N/A   Clear
12:15 PM -0.4 °F -15.7 °F -7.8 °F 71% 30.43 in 10.0 mi South 9.2 mph - N/A   Clear
12:35 PM 0.3 °F -14.8 °F -7.8 °F 69% 30.42 in 10.0 mi SSE 9.2 mph - N/A   Scattered Clouds
12:55 PM 1.0 °F -14.0 °F -6.7 °F 70% 30.41 in 10.0 mi SSE 9.2 mph - N/A   Mostly Cloudy
1:15 PM 2.1 °F -9.0 °F -6.0 °F 69% 30.39 in 10.0 mi SE 5.8 mph - N/A   Mostly Cloudy
1:35 PM 3.2 °F -10.3 °F -5.3 °F 68% 30.38 in 10.0 mi SE 8.1 mph - N/A   Scattered Clouds
1:55 PM 5.0 °F -9.1 °F -4.4 °F 65% 30.36 in 10.0 mi SSE 9.2 mph - N/A   Clear
2:15 PM 5.0 °F -9.1 °F -4.2 °F 66% 30.35 in 10.0 mi SE 9.2 mph - N/A   Scattered Clouds
2:35 PM 5.7 °F -9.1 °F -3.8 °F 65% 30.33 in 10.0 mi SE 10.4 mph - N/A   Overcast
2:55 PM 5.9 °F -8.9 °F -3.3 °F 66% 30.31 in 10.0 mi ESE 10.4 mph - N/A   Overcast
3:15 PM 6.8 °F -8.6 °F -2.7 °F 65% 30.30 in 10.0 mi SE 11.5 mph - N/A   Overcast
3:35 PM 7.2 °F -8.1 °F -3.1 °F 63% 30.29 in 10.0 mi ESE 11.5 mph - N/A   Overcast
3:55 PM 7.0 °F -9.8 °F -3.3 °F 63% 30.29 in 10.0 mi ESE 13.8 mph - N/A   Overcast
4:15 PM 6.8 °F -9.3 °F -3.3 °F 63% 30.28 in 10.0 mi ESE 12.7 mph - N/A   Overcast
4:35 PM 6.8 °F -7.8 °F -3.3 °F 63% 30.28 in 10.0 mi SE 10.4 mph - N/A   Overcast
4:55 PM 6.4 °F -7.3 °F -3.3 °F 64% 30.27 in 10.0 mi ESE 9.2 mph - N/A   Overcast
5:15 PM 6.1 °F -6.8 °F -3.3 °F 65% 30.27 in 10.0 mi East 8.1 mph - N/A   Overcast
5:35 PM 5.0 °F -6.9 °F -3.3 °F 69% 30.27 in 10.0 mi ESE 6.9 mph - N/A   Overcast
5:55 PM 5.4 °F -7.6 °F -2.6 °F 70% 30.27 in 10.0 mi East 8.1 mph - N/A   Overcast
6:15 PM 5.5 °F -9.3 °F -1.8 °F 72% 30.26 in 10.0 mi East 10.4 mph - N/A   Overcast
6:35 PM 5.7 °F -9.9 °F -1.1 °F 73% 30.26 in 10.0 mi East 11.5 mph - N/A   Overcast
6:55 PM 5.9 °F -10.5 °F -0.0 °F 77% 30.25 in 4.0 mi ESE 12.7 mph - N/A Snow Light Snow
7:15 PM 6.4 °F -9.0 °F 1.6 °F 80% 30.25 in 1.8 mi ESE 11.5 mph - N/A Snow Light Snow
7:35 PM 6.4 °F -9.0 °F 2.1 °F 82% 30.24 in 3.0 mi ESE 11.5 mph - N/A Snow Light Snow
7:55 PM 6.4 °F -9.0 °F 2.1 °F 82% 30.24 in 2.0 mi SE 11.5 mph - N/A Snow Light Snow
8:15 PM 6.3 °F -9.2 °F 1.8 °F 82% 30.23 in 1.8 mi SE 11.5 mph 18.4 mph N/A Snow Light Snow
8:35 PM 5.9 °F -10.5 °F 1.9 °F 84% 30.23 in 1.2 mi SE 12.7 mph - N/A Snow Light Snow
8:55 PM 5.9 °F -11.8 °F 1.9 °F 84% 30.22 in 1.5 mi SE 15.0 mph - N/A Snow Light Snow
9:15 PM 5.9 °F -11.8 °F 1.4 °F 82% 30.21 in 1.5 mi SE 15.0 mph 18.4 mph N/A Snow Light Snow
9:35 PM 5.9 °F -10.5 °F 1.4 °F 82% 30.21 in 1.5 mi SE 12.7 mph - N/A Snow Light Snow
9:55 PM 5.7 °F -11.4 °F 1.0 °F 81% 30.20 in 1.8 mi SE 13.8 mph - N/A Snow Light Snow
10:15 PM 5.5 °F -11.6 °F 0.9 °F 81% 30.19 in 2.5 mi SE 13.8 mph 20.7 mph N/A Snow Light Snow
10:35 PM 5.4 °F -11.8 °F 0.5 °F 80% 30.18 in 3.0 mi SE 13.8 mph - N/A Snow Light Snow
10:55 PM 5.0 °F -13.6 °F 0.5 °F 82% 30.17 in 2.0 mi SE 16.1 mph - N/A Snow Light Snow
11:15 PM 5.0 °F -12.3 °F 0.5 °F 82% 30.17 in 2.5 mi SE 13.8 mph - N/A Snow Light Snow
11:35 PM 5.0 °F -12.3 °F 0.5 °F 82% 30.16 in 3.0 mi SE 13.8 mph - N/A Snow Light Snow
11:55 PM 5.0 °F -12.3 °F 0.5 °F 82% 30.15 in 4.0 mi SE 13.8 mph - N/A Snow Light Snow